Weather History for KDPA - April, 2014

Change the Weather History Date:

Monday, April 7, 2014

  Actual Average Record
Temperature  
Mean Temperature 43 °F 46 °F  
Max Temperature 56 °F 58 °F 80 °F (2001)
Min Temperature 29 °F 35 °F 21 °F (2007)
Degree Days  
Heating Degree Days 22 19  
Month to date heating degree days 169 139  
Since 1 July heating degree days 7035 5730  
Cooling Degree Days 0 0  
Month to date cooling degree days 0 0  
Year to date cooling degree days 0 0  
Moisture  
Dew Point 28 °F    
Average Humidity 56    
Maximum Humidity 85    
Minimum Humidity 28    
Precipitation  
Precipitation 0.00 in 0.10 in 0.72 in (1998)
Month to date precipitation 0.49 0.63  
Year to date precipitation 2.16 5.72  
Sea Level Pressure  
Sea Level Pressure 29.74 in    
Wind  
Wind Speed 7 mph (NNE)    
Max Wind Speed 20 mph    
Max Gust Speed 24 mph    
Visibility 10 miles    
Events      
T = Trace of Precipitation, MM = Missing Value Source: NWS Daily Summary

Daily Weather History Graph

Daily Weather History Graph

Search for Another Location

Airport or City:

Trip Planner

Search our weather history database for the weather conditions in past years. The results will help you decide how hot, cold, wet, or windy it might be!

Date:

Astronomy

Apr. 07, 2014 Rise Set
Actual Time 6:25 AM CDT 7:25 PM CDT
Civil Twilight 5:57 AM CDT 7:53 PM CDT
Nautical Twilight 5:23 AM CDT 8:27 PM CDT
Astronomical Twilight 4:48 AM CDT 9:03 PM CDT
Moon 12:18 PM CDT (4/7) 2:04 AM CDT (4/7)
Length of Visible Light 13h 56m
Length of Day
12h 59m
First Quarter, 53% of the Moon is Illuminated
Apr 7
First Quarter
Apr 15
Full
Apr 22
Last Quarter
Apr 29
New
May 6
First Quarter

Hourly Weather History & Observations

Time (CDT) Temp. Windchill Dew Point Humidity Pressure Visibility Wind Dir Wind Speed Gust Speed Precip Events Conditions
12:52 AM 32.0 °F 26.4 °F 27.0 °F 82% 29.94 in 10.0 mi North 5.8 mph - N/A   Clear
1:52 AM 33.1 °F 30.0 °F 28.0 °F 82% 29.91 in 9.0 mi NE 3.5 mph - N/A   Clear
2:52 AM 33.1 °F 30.0 °F 28.9 °F 85% 29.88 in 9.0 mi North 3.5 mph - N/A   Clear
3:52 AM 30.9 °F 26.2 °F 27.0 °F 85% 29.85 in 9.0 mi North 4.6 mph - N/A   Clear
4:52 AM 30.9 °F 25.2 °F 27.0 °F 85% 29.83 in 9.0 mi North 5.8 mph - N/A   Clear
5:52 AM 34.0 °F - 28.9 °F 82% 29.85 in 9.0 mi Calm Calm - N/A   Clear
6:52 AM 35.1 °F 31.0 °F 30.0 °F 82% 29.86 in 8.0 mi North 4.6 mph - N/A   Partly Cloudy
7:52 AM 37.9 °F 35.5 °F 32.0 °F 79% 29.84 in 10.0 mi North 3.5 mph - N/A   Clear
8:52 AM 46.0 °F 43.1 °F 33.1 °F 61% 29.81 in 10.0 mi NE 5.8 mph - N/A   Clear
9:52 AM 50.0 °F - 32.0 °F 50% 29.78 in 10.0 mi NNE 6.9 mph - N/A   Clear
10:52 AM 53.1 °F - 30.0 °F 41% 29.75 in 10.0 mi ENE 16.1 mph - N/A   Clear
11:52 AM 55.0 °F - 28.0 °F 35% 29.72 in 10.0 mi NE 16.1 mph - N/A   Clear
12:52 PM 55.0 °F - 26.1 °F 33% 29.70 in 10.0 mi ENE 16.1 mph - N/A   Clear
1:52 PM 55.0 °F - 24.1 °F 30% 29.68 in 10.0 mi NE 16.1 mph - N/A   Clear
2:52 PM 55.9 °F - 23.0 °F 28% 29.65 in 10.0 mi NNE 12.7 mph 20.7 mph N/A   Clear
3:52 PM 54.0 °F - 25.0 °F 33% 29.65 in 10.0 mi NNE 9.2 mph - N/A   Clear
4:52 PM 53.1 °F - 26.1 °F 35% 29.65 in 10.0 mi ENE 10.4 mph - N/A   Mostly Cloudy
5:52 PM 52.0 °F - 27.0 °F 38% 29.64 in 10.0 mi NE 5.8 mph - N/A   Overcast
6:52 PM 50.0 °F - 28.0 °F 43% 29.63 in 10.0 mi ENE 5.8 mph - N/A   Overcast
7:52 PM 48.0 °F - 28.0 °F 46% 29.63 in 10.0 mi NE 4.6 mph - N/A   Overcast
8:52 PM 46.9 °F - 28.9 °F 50% 29.65 in 10.0 mi Calm Calm - N/A   Overcast
9:52 PM 46.9 °F - 28.9 °F 50% 29.65 in 10.0 mi West 3.5 mph - N/A   Overcast
10:52 PM 45.0 °F 41.8 °F 28.9 °F 53% 29.65 in 10.0 mi West 5.8 mph - N/A   Overcast
11:52 PM 45.0 °F 41.8 °F 28.9 °F 53% 29.65 in 10.0 mi West 5.8 mph - N/A   Overcast